Disclaimer

Please do not use the information listed here in-flight or in-navigation, as they are not provided to us by the airports but are provided by volunteers, so they might be outdated.

Search


Regions


Airport information page

No radio frequency information is available.

Airport informations:
Latitude: 11° 59' 53.35" N
Longitude: 109° 13' 09.74" E
Elevation: 40 feet - 12 meters
Operating hours: N/A
Operating agency: Civil government, landing fees and diplomatic clearance may be required
Timezone: UTC+7
Fuel: N/A

Runway information:
02/20 - 10000 x 150 feet< - >3048 x 46 meters

Recent METARs:
VVCR 152100Z 01004KT 9999 FEW015 BKN050 25/22 Q1013 NOSIG
VVCR 152200Z 02007KT 9999 FEW013 SCT040 25/21 Q1013 NOSIG
VVCR 152230Z 01005KT 9999 FEW013 SCT040 25/21 Q1013 NOSIG

Airport on the map: